CW5914 Weather Reports


Display with metric or nautical units.
time (UTC)temp
F
wind
direction
speed
MPH
gust
MPH
rain 1hr
in
rain 24hr
in
rain mn
in
humidity
%
barometer
mb
20260502151727 48 217 1.0 2.0 0.00 0.00 0.00 66 1022.5
20260502151224 48 300 4.0 6.0 0.00 0.00 0.00 67 1022.6
20260502150721 48 225 1.0 1.0 0.00 0.00 0.00 66 1022.5
20260502150218 48 283 4.0 5.0 0.00 0.00 0.00 66 1022.5
20260502130606 42 105 4.0 6.0 0.00 0.00 0.00 68 1022.4
20260502130104 42 110 4.0 5.0 0.00 0.00 0.00 69 1022.2
20260502123549 42 3 3.0 3.0 0.00 0.00 0.00 73 1022.0
20260502123046 42 152 1.0 2.0 0.00 0.00 0.00 70 1022.2
20260502122542 42 109 3.0 3.0 0.00 0.00 0.00 66 1022.1
20260502122040 40 122 1.0 1.0 0.00 0.00 0.00 74 1022.2
20260502121537 40 213 0.0 0.0 0.00 0.00 0.00 76 1022.2
20260502121035 41 176 3.0 3.0 0.00 0.00 0.00 72 1022.0
20260502120531 43 56 7.0 10.0 0.00 0.00 0.00 63 1022.0
20260502115526 42 337 3.0 3.0 0.00 0.00 0.00 73 1022.0
20260502115021 44 166 2.0 2.0 0.00 0.00 0.00 70 1022.1
20260502114518 45 270 3.0 5.0 0.00 0.00 0.00 59 1021.8
20260502114015 45 52 8.0 13.0 0.00 0.00 0.00 58 1022.3
20260502113512 44 41 4.0 7.0 0.00 0.00 0.00 63 1021.8
20260502113011 43 22 3.0 3.0 0.00 0.00 0.00 72 1022.1
20260502112508 42 33 4.0 5.0 0.00 0.00 0.00 73 1022.0
20260502112006 41 51 5.0 6.0 0.00 0.00 0.00 76 1022.0
20260502111503 41 30 3.0 3.0 0.00 0.00 0.00 76 1022.0
20260502111000 41 250 2.0 2.0 0.00 0.00 0.00 76 1022.0
20260502110458 42 354 4.0 5.0 0.00 0.00 0.00 73 1022.0
20260502105955 46 12 3.0 3.0 0.00 0.00 0.00 66 1022.1
20260502105453 46 40 3.0 5.0 0.00 0.00 0.00 55 1022.0
20260502104950 47 90 6.0 9.0 0.00 0.00 0.00 54 1021.8
20260502104447 47 86 11.0 14.0 0.00 0.00 0.00 53 1022.0
20260502103944 46 74 15.0 17.0 0.00 0.00 0.00 54 1021.8
20260502103442 45 185 1.0 2.0 0.00 0.00 0.00 61 1021.7
20260502102938 42 209 5.0 6.0 0.00 0.00 0.00 70 1022.0
20260502102436 41 224 2.0 2.0 0.00 0.00 0.00 72 1022.0
20260502101932 41 211 0.0 1.0 0.00 0.00 0.00 73 1022.1
20260502101431 41 205 1.0 2.0 0.00 0.00 0.00 73 1022.0
20260502100928 41 192 3.0 3.0 0.00 0.00 0.00 71 1021.8
20260502100428 46 178 5.0 5.0 0.00 0.00 0.00 65 1022.0
20260502091402 43 216 0.0 0.0 0.00 0.00 0.00 67 1021.8
20260502090859 44 191 2.0 2.0 0.00 0.00 0.00 66 1022.0
20260502090355 45 198 2.0 2.0 0.00 0.00 0.00 63 1021.6
20260502071250 51 98 7.0 9.0 0.00 0.00 0.00 49 1022.0
20260502070749 51 87 7.0 10.0 0.00 0.00 0.00 49 1022.1
20260502070246 48 189 3.0 3.0 0.00 0.00 0.00 56 1022.0
20260502065745 50 231 0.0 0.0 0.00 0.00 0.00 55 1022.1
20260502065242 51 304 3.0 3.0 0.00 0.00 0.00 50 1022.0
20260502064740 51 95 4.0 6.0 0.00 0.00 0.00 49 1021.8
20260502064238 51 218 3.0 3.0 0.00 0.00 0.00 50 1021.7
20260502063735 51 30 4.0 5.0 0.00 0.00 0.00 56 1021.7
20260502063233 51 292 3.0 3.0 0.00 0.00 0.00 53 1021.7
20260502062730 51 8 1.0 2.0 0.00 0.00 0.00 51 1021.8
20260502062227 51 30 2.0 2.0 0.00 0.00 0.00 50 1021.8
20260502061726 51 273 3.0 3.0 0.00 0.00 0.00 51 1021.6
20260502061223 50 275 1.0 1.0 0.00 0.00 0.00 54 1021.5
20260502060718 51 275 1.0 2.0 0.00 0.00 0.00 51 1021.4
20260502060214 52 260 0.0 1.0 0.00 0.00 0.00 49 1021.4
20260502055712 51 152 1.0 2.0 0.00 0.00 0.00 51 1021.4
20260502055210 51 210 1.0 1.0 0.00 0.00 0.00 53 1021.5
20260502054709 51 217 3.0 3.0 0.00 0.00 0.00 57 1021.4
20260502054206 54 210 3.0 3.0 0.00 0.00 0.00 48 1021.4
20260502053703 53 96 7.0 9.0 0.00 0.00 0.00 45 1021.0
20260502053200 51 94 4.0 5.0 0.00 0.00 0.00 49 1021.3
20260502052658 50 185 1.0 1.0 0.00 0.00 0.00 57 1021.3
20260502052157 50 207 0.0 1.0 0.00 0.00 0.00 59 1021.4
20260502051654 50 202 1.0 1.0 0.00 0.00 0.00 58 1021.3
20260502051152 51 191 2.0 2.0 0.00 0.00 0.00 57 1021.3
20260502050648 51 200 1.0 2.0 0.00 0.00 0.00 58 1021.2
20260502050145 51 206 4.0 5.0 0.00 0.00 0.00 57 1021.3
20260502045641 52 202 2.0 2.0 0.00 0.00 0.00 54 1021.2
20260502045139 53 120 2.0 2.0 0.00 0.00 0.00 47 1021.2
20260502044635 53 152 1.0 2.0 0.00 0.00 0.00 47 1021.2
20260502044132 53 207 0.0 1.0 0.00 0.00 0.00 50 1021.3
20260502043630 53 194 1.0 1.0 0.00 0.00 0.00 53 1021.0
20260502043126 53 195 1.0 2.0 0.00 0.00 0.00 52 1021.2
20260502042620 53 220 2.0 3.0 0.00 0.00 0.00 52 1021.2
20260502042118 53 207 1.0 2.0 0.00 0.00 0.00 52 1021.3
20260502041615 54 216 1.0 1.0 0.00 0.00 0.00 51 1021.3
20260502041112 54 219 0.0 0.0 0.00 0.00 0.00 50 1021.2
20260502040609 54 231 0.0 0.0 0.00 0.00 0.00 50 1021.0
20260502040106 55 226 0.0 1.0 0.00 0.00 0.00 48 1020.9
20260502035602 55 205 1.0 2.0 0.00 0.00 0.00 47 1020.8
20260502035059 56 124 3.0 3.0 0.00 0.00 0.00 45 1020.8
20260502034557 56 80 5.0 6.0 0.00 0.00 0.00 45 1020.7
20260502034055 56 179 0.0 0.0 0.00 0.00 0.00 46 1020.8
20260502033553 56 204 0.0 0.0 0.00 0.00 0.00 48 1020.7
20260502033050 56 198 1.0 1.0 0.00 0.00 0.00 46 1020.8
20260502032546 56 184 2.0 2.0 0.00 0.00 0.00 46 1020.6
20260502032043 56 212 0.0 1.0 0.00 0.00 0.00 47 1020.6
20260502031541 57 216 0.0 0.0 0.00 0.00 0.00 47 1020.6
20260502031038 57 215 0.0 0.0 0.00 0.00 0.00 45 1020.5
20260502030537 57 216 0.0 0.0 0.00 0.00 0.00 47 1020.4
20260502030035 57 213 0.0 0.0 0.00 0.00 0.00 47 1020.2
20260502025532 58 213 0.0 0.0 0.00 0.00 0.00 47 1020.4
20260502025030 59 218 1.0 1.0 0.00 0.00 0.00 47 1020.1
20260502024527 59 224 3.0 3.0 0.00 0.00 0.00 40 1020.0
20260502024025 61 220 0.0 0.0 0.00 0.00 0.00 37 1020.0
20260502023523 61 227 0.0 0.0 0.00 0.00 0.00 33 1020.1
20260502023020 62 230 0.0 0.0 0.00 0.00 0.00 32 1020.0
20260502022516 62 230 0.0 0.0 0.00 0.00 0.00 33 1019.8
20260502022014 63 222 0.0 1.0 0.00 0.00 0.00 32 1020.0
20260502021511 63 223 0.0 1.0 0.00 0.00 0.00 32 1019.9
20260502021008 64 269 1.0 1.0 0.00 0.00 0.00 30 1019.9
20260502020506 65 242 0.0 1.0 0.00 0.00 0.00 30 1019.9
20260502020002 65 291 2.0 3.0 0.00 0.00 0.00 30 1019.9
20260502015500 65 279 1.0 1.0 0.00 0.00 0.00 31 1019.7
20260502014956 66 162 1.0 1.0 0.00 0.00 0.00 30 1019.9
20260502014453 66 284 2.0 2.0 0.00 0.00 0.00 31 1020.0
20260502013950 66 257 1.0 1.0 0.00 0.00 0.00 31 1019.7
20260502013445 66 254 0.0 1.0 0.00 0.00 0.00 31 1019.7
20260502012942 66 269 2.0 2.0 0.00 0.00 0.00 31 1019.8
20260502012440 66 268 1.0 2.0 0.00 0.00 0.00 30 1019.9
20260502011937 66 235 1.0 2.0 0.00 0.00 0.00 30 1019.8
20260502011433 66 323 2.0 2.0 0.00 0.00 0.00 30 1019.8
20260502010930 66 236 4.0 5.0 0.00 0.00 0.00 30 1019.7
20260502010426 66 253 1.0 2.0 0.00 0.00 0.00 30 1019.6
20260502005923 66 223 2.0 2.0 0.00 0.00 0.00 31 1019.7
20260502005421 67 253 3.0 3.0 0.00 0.00 0.00 30 1019.7
20260502004919 66 208 1.0 2.0 0.00 0.00 0.00 30 1019.4
20260502004414 67 283 3.0 3.0 0.00 0.00 0.00 30 1019.9
20260502003912 66 250 1.0 1.0 0.00 0.00 0.00 30 1019.7
20260502003410 66 250 3.0 3.0 0.00 0.00 0.00 30 1019.8
20260502002906 67 255 3.0 3.0 0.00 0.00 0.00 30 1019.9
20260502002404 66 296 3.0 3.0 0.00 0.00 0.00 32 1019.9
20260502001900 66 257 1.0 2.0 0.00 0.00 0.00 32 1020.0
20260502001358 66 286 2.0 2.0 0.00 0.00 0.00 32 1020.1
20260502000855 66 271 4.0 6.0 0.00 0.00 0.00 32 1019.9
20260502000354 66 337 5.0 6.0 0.00 0.00 0.00 32 1020.0
20260501235849 66 325 6.0 7.0 0.00 0.00 0.00 32 1019.8
20260501235345 66 300 4.0 6.0 0.00 0.00 0.00 33 1020.0
20260501234840 68 22 5.0 6.0 0.00 0.00 0.00 32 1020.1
20260501234337 66 242 2.0 2.0 0.00 0.00 0.00 33 1020.0
20260501233836 67 328 6.0 8.0 0.00 0.00 0.00 33 1020.1
20260501233333 67 239 2.0 2.0 0.00 0.00 0.00 33 1020.0
20260501232828 66 311 3.0 5.0 0.00 0.00 0.00 33 1020.0
20260501232326 66 333 6.0 7.0 0.00 0.00 0.00 32 1020.2
20260501231823 67 234 0.0 1.0 0.00 0.00 0.00 31 1020.1
20260501231321 67 335 4.0 6.0 0.00 0.00 0.00 32 1019.9
20260501230819 66 279 3.0 3.0 0.00 0.00 0.00 32 1020.2
20260501230318 66 246 1.0 1.0 0.00 0.00 0.00 33 1020.0
20260501225815 66 251 4.0 6.0 0.00 0.00 0.00 32 1020.1
20260501225313 66 315 4.0 5.0 0.00 0.00 0.00 32 1020.4
20260501224809 67 290 5.0 7.0 0.00 0.00 0.00 32 1020.4
20260501224306 67 299 6.0 7.0 0.00 0.00 0.00 32 1020.6
20260501223802 67 256 1.0 2.0 0.00 0.00 0.00 32 1020.4
20260501223258 66 324 3.0 5.0 0.00 0.00 0.00 34 1020.4
20260501222754 66 294 3.0 5.0 0.00 0.00 0.00 32 1020.6
20260501222252 65 262 5.0 6.0 0.00 0.00 0.00 33 1020.4
20260501221749 66 289 2.0 2.0 0.00 0.00 0.00 32 1020.7
20260501221246 66 234 1.0 2.0 0.00 0.00 0.00 33 1020.5
20260501220743 66 255 1.0 2.0 0.00 0.00 0.00 33 1020.8
20260501220240 65 339 6.0 7.0 0.00 0.00 0.00 33 1020.9
20260501215738 66 298 3.0 3.0 0.00 0.00 0.00 34 1020.9
20260501215232 66 277 4.0 6.0 0.00 0.00 0.00 34 1021.0
20260501214728 65 302 2.0 2.0 0.00 0.00 0.00 33 1021.0
20260501214225 65 316 3.0 3.0 0.00 0.00 0.00 33 1021.0
20260501213721 66 30 7.0 9.0 0.00 0.00 0.00 33 1020.9
20260501213217 66 309 5.0 6.0 0.00 0.00 0.00 33 1021.3
20260501212713 66 260 4.0 5.0 0.00 0.00 0.00 32 1021.3
20260501212210 64 259 1.0 1.0 0.00 0.00 0.00 33 1021.2
20260501211707 64 278 5.0 6.0 0.00 0.00 0.00 33 1021.4
20260501211204 64 287 5.0 6.0 0.00 0.00 0.00 35 1021.2
20260501210701 64 317 8.0 10.0 0.00 0.00 0.00 35 1021.4
20260501210158 63 337 8.0 10.0 0.00 0.00 0.00 34 1021.5
20260501205654 64 158 1.0 1.0 0.00 0.00 0.00 34 1021.4
20260501205151 64 302 6.0 7.0 0.00 0.00 0.00 34 1021.4
20260501204648 65 303 5.0 6.0 0.00 0.00 0.00 35 1021.6
20260501204144 65 248 3.0 3.0 0.00 0.00 0.00 34 1021.7
20260501203640 64 274 2.0 2.0 0.00 0.00 0.00 34 1021.4
20260501203138 64 273 4.0 5.0 0.00 0.00 0.00 36 1021.4
20260501202635 64 318 5.0 7.0 0.00 0.00 0.00 35 1021.6
20260501202132 63 259 4.0 5.0 0.00 0.00 0.00 36 1021.4
20260501201629 63 89 5.0 6.0 0.00 0.00 0.00 35 1021.4
20260501201125 63 348 4.0 5.0 0.00 0.00 0.00 35 1021.3
20260501200622 63 271 2.0 3.0 0.00 0.00 0.00 36 1021.5
20260501200120 63 315 5.0 6.0 0.00 0.00 0.00 37 1021.5
20260501195617 63 342 2.0 5.0 0.00 0.00 0.00 39 1021.6
20260501195113 62 256 2.0 2.0 0.00 0.00 0.00 36 1021.8
20260501194608 62 296 1.0 1.0 0.00 0.00 0.00 39 1021.7
20260501194104 62 328 8.0 10.0 0.00 0.00 0.00 38 1021.7
20260501193602 62 234 5.0 7.0 0.00 0.00 0.00 38 1021.7
20260501193100 63 44 3.0 5.0 0.00 0.00 0.00 37 1021.6
20260501192556 63 215 3.0 6.0 0.00 0.00 0.00 39 1021.6
20260501192054 62 344 5.0 7.0 0.00 0.00 0.00 37 1021.8
20260501191551 61 355 5.0 7.0 0.00 0.00 0.00 40 1021.8
20260501191049 62 338 3.0 3.0 0.00 0.00 0.00 40 1021.8
20260501190544 61 221 2.0 2.0 0.00 0.00 0.00 38 1022.0
20260501190040 61 219 1.0 1.0 0.00 0.00 0.00 39 1022.1
20260501185536 60 320 4.0 5.0 0.00 0.00 0.00 40 1022.2
20260501185032 60 254 6.0 7.0 0.00 0.00 0.00 40 1022.1
20260501184529 61 243 2.0 2.0 0.00 0.00 0.00 40 1022.2
20260501184028 60 107 2.0 3.0 0.00 0.00 0.00 42 1022.2
20260501183526 61 289 4.0 5.0 0.00 0.00 0.00 41 1022.3
20260501183022 60 227 1.0 1.0 0.00 0.00 0.00 40 1022.3
20260501182519 61 309 5.0 7.0 0.00 0.00 0.00 40 1022.4
20260501182016 58 183 4.0 5.0 0.00 0.00 0.00 42 1022.5
20260501181513 60 1 7.0 8.0 0.00 0.00 0.00 41 1022.4
20260501181010 59 157 1.0 1.0 0.00 0.00 0.00 40 1022.3
20260501180508 60 26 6.0 7.0 0.00 0.00 0.00 40 1022.4
20260501180003 58 222 0.0 0.0 0.00 0.00 0.00 40 1022.5
20260501175500 57 243 3.0 5.0 0.00 0.00 0.00 43 1022.5
20260501174956 58 3 5.0 6.0 0.00 0.00 0.00 43 1022.6
20260501174454 60 217 2.0 2.0 0.00 0.00 0.00 42 1022.9
20260501173952 59 354 5.0 6.0 0.00 0.00 0.00 43 1022.6
20260501173449 58 323 5.0 7.0 0.00 0.00 0.00 42 1022.9
20260501172944 58 22 2.0 2.0 0.00 0.00 0.00 44 1022.8
20260501172441 57 135 3.0 3.0 0.00 0.00 0.00 43 1022.8
20260501171936 57 235 2.0 2.0 0.00 0.00 0.00 44 1022.9
20260501171433 57 297 3.0 3.0 0.00 0.00 0.00 43 1023.0
20260501170929 57 355 3.0 5.0 0.00 0.00 0.00 45 1023.0
20260501170426 56 217 0.0 1.0 0.00 0.00 0.00 45 1022.8
20260501165924 55 302 2.0 3.0 0.00 0.00 0.00 48 1022.8
20260501165422 55 260 3.0 5.0 0.00 0.00 0.00 47 1023.1
20260501164919 55 312 5.0 6.0 0.00 0.00 0.00 48 1022.9
20260501164417 55 254 1.0 2.0 0.00 0.00 0.00 50 1023.1
20260501163913 55 301 5.0 6.0 0.00 0.00 0.00 51 1023.1
20260501163409 55 198 1.0 1.0 0.00 0.00 0.00 51 1023.2
20260501162906 54 308 4.0 5.0 0.00 0.00 0.00 54 1023.1
20260501162403 53 273 2.0 2.0 0.00 0.00 0.00 51 1023.3
20260501161900 54 307 4.0 6.0 0.00 0.00 0.00 53 1023.0
20260501161356 53 341 4.0 6.0 0.00 0.00 0.00 52 1023.0
20260501160853 52 244 3.0 5.0 0.00 0.00 0.00 54 1023.1
20260501160349 52 356 5.0 7.0 0.00 0.00 0.00 56 1023.2
20260501155848 51 325 3.0 6.0 0.00 0.00 0.00 56 1022.9
20260501155344 51 246 3.0 5.0 0.00 0.00 0.00 58 1023.2
20260501154841 51 340 3.0 3.0 0.00 0.00 0.00 58 1023.1
20260501154338 50 271 2.0 3.0 0.00 0.00 0.00 59 1023.2
20260501153835 50 47 5.0 5.0 0.00 0.00 0.00 58 1023.4
20260501153333 50 316 3.0 5.0 0.00 0.00 0.00 59 1023.2
20260501152828 49 348 4.0 5.0 0.00 0.00 0.00 58 1023.4
20260501152326 50 333 3.0 3.0 0.00 0.00 0.00 57 1023.2